{"data":{"norad_id":64278,"intl_designator":"2025-120Y","name":"STARLINK-34353","alt_names":[],"object_type":"PAYLOAD","status":"ACTIVE","operator":null,"country":"US","launch_date":"2025-06-04","launch_site_code":"AFWTR","launch_vehicle":null,"mission":null,"orbit_class":"UNKNOWN","rcs_meters":null,"size_class":null,"mass_kg":null,"dimensions":null,"purposes":["comms"],"wikipedia_slug":null,"has_3d_model":false,"image_url":null,"decayed_at":null,"tle_current":{"epoch":"2026-05-25T02:41:48.761952Z","epoch_age_seconds":62171,"freshness":"FRESH","line1":"1 64278U 25120Y   26145.11236993  .00012277  00000+0  42586-3 0  9995","line2":"2 64278  53.1578 121.9358 0001279  87.3272 272.7875 15.30207501 55614","mean_motion":15.30207501,"eccentricity":0.0001279,"inclination_deg":53.1578,"raan_deg":121.9358,"arg_perigee_deg":87.3272,"mean_anomaly_deg":272.7875,"bstar":0.00042586,"rev_number":5561,"period_min":94.104884406785,"perigee_km":474.31613201172,"apogee_km":476.06921374204,"semimajor_km":6853.3296728769,"source":"CELESTRAK","updated_at":"2026-05-25T13:38:20.362845Z"}}}